CZ-6A DEB, 61293

Orbit data source: Space-Track

CZ-6A DEB, 61293 is space debris in LEO originally from a launch on Tue, 06 Aug 2024 UTC launched from the Taiyaun Space Center, China (TSC). Debris objects in space refer to the collection of defunct objects orbiting the Earth. Examples of debris include non-operational satellites, rocket bodies, and fragments generated from explosions, collisions, or faulty payload assembly.

Loading next visibility...
Identifier
61293, 2024-140TE
Orbit
LEO
Country
Flag of CNCN / PRC
Related business
Manufacturer
SAST
Mission
Spacecraft
Bus & Motor
Unknown
Mass
Unknown
Launch date (UTC)
2024-08-06 (2 years ago)
Launch vehicle
Unknown
Launch site
Taiyaun Space Center, China (TSC)
Object type
Payload
Rocket body
Debris
Shape & HBR
Unknown shape, 0.1 m
Radar Cross Section
Small (<0.1 m²)

Expand to show TLE details & history
Last TLE update: 14 hours ago

TLE from 14 hours ago
0 CZ-6A DEB
1 61293U 24140TE  26171.25281168  .00003748  00000-0  70974-3 0  9994
2 61293  89.0418 273.1650 0089160 247.8152 111.3583 14.61605254 96191
Epoch: 2026-06-20T06:04Z
TLE epoch observation values (Epoch: 2026-06-20T06:04:02.929Z)
Latitude
-0°
Longitude
-86.3173°
Altitude
714.543 km
Speed
7.486 km/s
True Right ascension
18h 12m 39s
True Declination
0° 00' 00"
Sunlit
Object was in full shadow at epoch
Visualization orbit readout
Latitude
Unknown
Longitude
Unknown
Altitude
Unknown
Speed
Unknown
Apparent Right ascension
Unknown
Apparent Declination
Unknown
Sunlit
N/A
Visualization observer readout
Local Sidereal Time
07:17:00
Azimuth
Unknown
Elevation
Unknown
Doppler factor
Unknown
Orbital elements
Apogee altitude
747.861 km
Perigee altitude
621.913 km
Semi-major axis
7,063.024 km
Eccentricity
0.00892
Inclination
89.0418°
RAAN
273.165°
Arg. of periapsis
247.8152°
True anomaly
112.30594°
Mean anomaly
111.3583°
Eccentric anomaly
111.83251°
Mean motion
3.65643 °/min
Orbital period
98.46 mins
BSTAR
0.00070974
Loading maneuver chart data...
Computing Atmospheric mass density...
Loading historical data...
Loading historical data...
Loading historical data...
Loading historical data...
Loading historical data...
Loading historical data...
Loading historical data...

Documentation

Showing up to 5 results
|